[Date Prev][Date Next][Thread Prev][Thread Next] - [Date Index][Thread Index][Author Index]

2 Line ISS Keps 11-10



ISS 
1 25544U 98067A   04315.21700231  .00038810  00000-0  31021-3 0  1070
2 25544  51.6355 300.5945 0008198 339.7924 207.8868 15.70660572341259
----
Via the sarex mailing list at AMSAT.ORG courtesy of AMSAT-NA.
To unsubscribe, send "unsubscribe sarex" to Majordomo@amsat.org



AMSAT Top AMSAT Home